Time,TemperatureF,DewpointF,PressureIn,WindDirection,WindDirectionDegrees,WindSpeedMPH,WindSpeedGustMPH,Humidity,HourlyPrecipIn,Conditions,Clouds,dailyrainin,SoftwareType,DateUTC
2013-01-03 00:00:00,35.5,25.3,30.18,NNW,331,2.0,3.0,66,0.00,,---,0.00,VWS V14.01,2013-01-03 05:00:00,
2013-01-03 00:01:00,35.5,25.3,30.18,NNW,331,0.0,2.0,66,0.00,,---,0.00,VWS V14.01,2013-01-03 05:01:00,
2013-01-03 00:02:00,35.4,25.0,30.18,NNW,331,0.0,-999.0,67,-99.99,,,0.00,weatherlink.com 1.10,2013-01-03 05:02:00,
2013-01-03 00:07:00,35.5,24.5,30.18,NNW,331,0.0,3.0,64,0.00,,---,0.00,VWS V14.01,2013-01-03 05:07:00,
2013-01-03 00:12:00,35.5,27.0,30.18,NNW,331,0.0,3.0,71,0.00,,---,0.00,VWS V14.01,2013-01-03 05:12:00,
2013-01-03 00:17:00,35.5,26.7,30.18,NNW,331,0.0,3.0,70,0.00,,---,0.00,VWS V14.01,2013-01-03 05:17:00,
2013-01-03 00:22:00,35.4,26.3,30.18,NNW,331,0.0,3.0,69,0.00,,---,0.00,VWS V14.01,2013-01-03 05:22:00,
2013-01-03 00:27:00,35.3,25.5,30.18,NNW,331,0.0,3.0,67,0.00,,---,0.00,VWS V14.01,2013-01-03 05:27:00,
2013-01-03 00:30:00,35.3,25.1,30.18,NNW,331,0.0,3.0,66,0.00,,---,0.00,VWS V14.01,2013-01-03 05:30:00,
2013-01-03 00:32:00,35.3,25.5,30.18,NNW,331,0.0,0.0,67,0.00,,---,0.00,VWS V14.01,2013-01-03 05:32:00,
2013-01-03 00:37:00,35.3,25.1,30.18,NNW,331,0.0,0.0,66,0.00,,---,0.00,VWS V14.01,2013-01-03 05:37:00,
2013-01-03 00:42:00,35.3,24.4,30.18,NNW,331,0.0,0.0,64,0.00,,---,0.00,VWS V14.01,2013-01-03 05:42:00,
2013-01-03 00:47:00,35.2,23.9,30.18,NNW,331,0.0,0.0,63,0.00,,---,0.00,VWS V14.01,2013-01-03 05:47:00,
2013-01-03 00:52:00,35.3,24.4,30.17,NNW,331,0.0,0.0,64,0.00,,---,0.00,VWS V14.01,2013-01-03 05:52:00,
2013-01-03 00:57:00,35.3,22.8,30.17,NNW,331,3.0,3.0,60,0.00,,---,0.00,VWS V14.01,2013-01-03 05:57:00,
2013-01-03 01:00:00,35.3,22.8,30.17,NNW,331,0.0,3.0,60,0.00,,---,0.00,VWS V14.01,2013-01-03 06:00:00,
2013-01-03 01:02:00,35.4,22.9,30.17,NNW,331,0.0,1.0,60,0.00,,---,0.00,VWS V14.01,2013-01-03 06:02:00,
2013-01-03 01:07:00,35.4,24.1,30.17,NNW,331,1.0,3.0,63,0.00,,---,0.00,VWS V14.01,2013-01-03 06:07:00,
2013-01-03 01:12:00,35.4,24.5,30.17,NNW,331,0.0,3.0,64,0.00,,---,0.00,VWS V14.01,2013-01-03 06:12:00,
2013-01-03 01:17:00,35.5,23.4,30.18,NNW,331,0.0,3.0,61,0.00,,---,0.00,VWS V14.01,2013-01-03 06:17:00,
2013-01-03 01:22:00,35.5,23.0,30.18,NNW,332,2.0,4.0,60,0.00,,---,0.00,VWS V14.01,2013-01-03 06:22:00,
2013-01-03 01:27:00,35.5,23.4,30.18,NNW,332,0.0,4.0,61,0.00,,---,0.00,VWS V14.01,2013-01-03 06:27:00,
2013-01-03 01:30:00,35.5,23.0,30.18,NNW,340,1.0,5.0,60,0.00,,---,0.00,VWS V14.01,2013-01-03 06:30:00,
2013-01-03 01:32:00,35.5,23.0,30.18,NNW,342,3.0,5.0,60,0.00,,---,0.00,VWS V14.01,2013-01-03 06:32:00,
2013-01-03 01:37:00,35.5,23.4,30.18,NNW,342,3.0,5.0,61,0.00,,---,0.00,VWS V14.01,2013-01-03 06:37:00,
2013-01-03 01:42:00,35.5,23.8,30.18,NNW,340,3.0,5.0,62,0.00,,---,0.00,VWS V14.01,2013-01-03 06:42:00,
2013-01-03 01:47:00,35.5,23.8,30.18,NNW,347,0.0,6.0,62,0.00,,---,0.00,VWS V14.01,2013-01-03 06:47:00,
2013-01-03 01:52:00,35.5,23.0,30.18,NNW,347,2.0,6.0,60,0.00,,---,0.00,VWS V14.01,2013-01-03 06:52:00,
2013-01-03 01:57:00,35.4,22.9,30.18,NNW,347,2.0,7.0,60,0.00,,---,0.00,VWS V14.01,2013-01-03 06:57:00,
2013-01-03 02:00:00,35.4,22.5,30.18,North,355,5.0,7.0,59,0.00,,---,0.00,VWS V14.01,2013-01-03 07:00:00,
2013-01-03 02:02:00,35.4,22.5,30.18,North,355,1.0,5.0,59,0.00,,---,0.00,VWS V14.01,2013-01-03 07:02:00,
2013-01-03 02:07:00,35.4,22.1,30.18,North,355,0.0,5.0,58,0.00,,---,0.00,VWS V14.01,2013-01-03 07:07:00,
2013-01-03 02:12:00,35.4,22.9,30.18,North,355,2.0,5.0,60,0.00,,---,0.00,VWS V14.01,2013-01-03 07:12:00,
2013-01-03 02:17:00,35.3,22.8,30.18,North,355,2.0,5.0,60,0.00,,---,0.00,VWS V14.01,2013-01-03 07:17:00,
2013-01-03 02:22:00,35.3,22.4,30.18,North,355,0.0,5.0,59,0.00,,---,0.00,VWS V14.01,2013-01-03 07:22:00,
2013-01-03 02:27:00,35.3,22.0,30.18,North,355,0.0,5.0,58,0.00,,---,0.00,VWS V14.01,2013-01-03 07:27:00,
2013-01-03 02:30:00,35.3,22.0,30.18,North,355,0.0,5.0,58,0.00,,---,0.00,VWS V14.01,2013-01-03 07:30:00,
2013-01-03 02:32:00,35.3,22.0,30.18,North,355,0.0,2.0,58,0.00,,---,0.00,VWS V14.01,2013-01-03 07:32:00,
2013-01-03 02:37:00,35.2,22.3,30.18,North,355,0.0,2.0,59,0.00,,---,0.00,VWS V14.01,2013-01-03 07:37:00,
2013-01-03 02:42:00,35.2,21.9,30.18,North,355,0.0,2.0,58,0.00,,---,0.00,VWS V14.01,2013-01-03 07:42:00,
2013-01-03 02:47:00,35.2,21.9,30.18,North,355,0.0,2.0,58,0.00,,---,0.00,VWS V14.01,2013-01-03 07:47:00,
2013-01-03 02:52:00,35.2,21.9,30.17,North,355,0.0,2.0,58,0.00,,---,0.00,VWS V14.01,2013-01-03 07:52:00,
2013-01-03 02:57:00,35.1,22.2,30.18,North,355,0.0,2.0,59,0.00,,---,0.00,VWS V14.01,2013-01-03 07:57:00,
2013-01-03 03:00:00,35.1,22.2,30.18,North,355,0.0,2.0,59,0.00,,---,0.00,VWS V14.01,2013-01-03 08:00:00,
2013-01-03 03:02:00,35.1,23.8,30.18,North,355,0.0,0.0,63,0.00,,---,0.00,VWS V14.01,2013-01-03 08:02:00,
2013-01-03 03:07:00,35.1,22.6,30.18,North,355,0.0,0.0,60,0.00,,---,0.00,VWS V14.01,2013-01-03 08:07:00,
2013-01-03 03:12:00,35.0,22.1,30.18,North,355,0.0,0.0,59,0.00,,---,0.00,VWS V14.01,2013-01-03 08:12:00,
2013-01-03 03:17:00,35.0,22.9,30.18,North,355,0.0,0.0,61,0.00,,---,0.00,VWS V14.01,2013-01-03 08:17:00,
2013-01-03 03:22:00,35.0,23.3,30.18,North,355,0.0,0.0,62,0.00,,---,0.00,VWS V14.01,2013-01-03 08:22:00,
2013-01-03 03:27:00,34.9,24.0,30.18,North,355,0.0,0.0,64,0.00,,---,0.00,VWS V14.01,2013-01-03 08:27:00,
2013-01-03 03:30:00,35.0,24.1,30.18,North,355,0.0,0.0,64,0.00,,---,0.00,VWS V14.01,2013-01-03 08:30:00,
2013-01-03 03:32:00,34.9,24.7,30.18,North,355,0.0,0.0,66,0.00,,---,0.00,VWS V14.01,2013-01-03 08:32:00,
2013-01-03 03:37:00,34.9,25.1,30.18,North,355,0.0,0.0,67,0.00,,---,0.00,VWS V14.01,2013-01-03 08:37:00,
2013-01-03 03:42:00,34.8,25.0,30.18,North,355,0.0,0.0,67,0.00,,---,0.00,VWS V14.01,2013-01-03 08:42:00,
2013-01-03 03:47:00,34.7,23.8,30.18,North,355,0.0,0.0,64,0.00,,---,0.00,VWS V14.01,2013-01-03 08:47:00,
2013-01-03 03:52:00,34.7,24.1,30.18,North,355,0.0,0.0,65,0.00,,---,0.00,VWS V14.01,2013-01-03 08:52:00,
2013-01-03 03:57:00,34.6,23.7,30.18,North,355,0.0,0.0,64,0.00,,---,0.00,VWS V14.01,2013-01-03 08:57:00,
2013-01-03 04:00:00,34.6,24.4,30.18,North,355,0.0,0.0,66,0.00,,---,0.00,VWS V14.01,2013-01-03 09:00:00,
2013-01-03 04:02:00,34.6,24.4,30.18,North,355,0.0,0.0,66,0.00,,---,0.00,VWS V14.01,2013-01-03 09:02:00,
2013-01-03 04:07:00,34.5,23.6,30.18,North,355,0.0,0.0,64,0.00,,---,0.00,VWS V14.01,2013-01-03 09:07:00,
2013-01-03 04:12:00,34.5,23.2,30.18,North,355,0.0,0.0,63,0.00,,---,0.00,VWS V14.01,2013-01-03 09:12:00,
2013-01-03 04:17:00,34.4,23.1,30.18,North,355,0.0,0.0,63,0.00,,---,0.00,VWS V14.01,2013-01-03 09:17:00,
2013-01-03 04:22:00,34.4,22.7,30.17,North,355,0.0,2.0,62,0.00,,---,0.00,VWS V14.01,2013-01-03 09:22:00,
2013-01-03 04:27:00,34.4,23.5,30.17,North,355,0.0,2.0,64,0.00,,---,0.00,VWS V14.01,2013-01-03 09:27:00,
2013-01-03 04:30:00,34.4,23.1,30.17,North,355,0.0,2.0,63,0.00,,---,0.00,VWS V14.01,2013-01-03 09:30:00,
2013-01-03 04:32:00,34.4,23.5,30.17,North,355,0.0,0.0,64,0.00,,---,0.00,VWS V14.01,2013-01-03 09:32:00,
2013-01-03 04:37:00,34.3,22.6,30.17,North,355,1.0,1.0,62,0.00,,---,0.00,VWS V14.01,2013-01-03 09:37:00,
2013-01-03 04:42:00,34.3,22.6,30.18,North,355,1.0,2.0,62,0.00,,---,0.00,VWS V14.01,2013-01-03 09:42:00,
2013-01-03 04:47:00,34.3,22.6,30.17,North,355,0.0,2.0,62,0.00,,---,0.00,VWS V14.01,2013-01-03 09:47:00,
2013-01-03 04:52:00,34.3,23.4,30.18,North,355,1.0,2.0,64,0.00,,---,0.00,VWS V14.01,2013-01-03 09:52:00,
2013-01-03 04:57:00,34.2,23.3,30.17,North,355,0.0,2.0,64,0.00,,---,0.00,VWS V14.01,2013-01-03 09:57:00,
2013-01-03 05:00:00,34.2,23.3,30.17,North,355,0.0,2.0,64,0.00,,---,0.00,VWS V14.01,2013-01-03 10:00:00,
2013-01-03 05:02:00,34.2,24.0,30.17,North,355,0.0,0.0,66,0.00,,---,0.00,VWS V14.01,2013-01-03 10:02:00,
2013-01-03 05:07:00,34.2,24.4,30.18,North,355,0.0,0.0,67,0.00,,---,0.00,VWS V14.01,2013-01-03 10:07:00,
2013-01-03 05:12:00,34.2,24.8,30.18,North,355,0.0,0.0,68,0.00,,---,0.00,VWS V14.01,2013-01-03 10:12:00,
2013-01-03 05:17:00,34.1,25.0,30.18,North,355,0.0,0.0,69,0.00,,---,0.00,VWS V14.01,2013-01-03 10:17:00,
2013-01-03 05:22:00,34.1,25.0,30.18,North,355,0.0,0.0,69,0.00,,---,0.00,VWS V14.01,2013-01-03 10:22:00,
2013-01-03 05:27:00,34.1,25.4,30.18,North,355,0.0,0.0,70,0.00,,---,0.00,VWS V14.01,2013-01-03 10:27:00,
2013-01-03 05:30:00,34.1,25.7,30.18,North,355,0.0,0.0,71,0.00,,---,0.00,VWS V14.01,2013-01-03 10:30:00,
2013-01-03 05:32:00,34.1,25.7,30.18,North,355,0.0,0.0,71,0.00,,---,0.00,VWS V14.01,2013-01-03 10:32:00,
2013-01-03 05:37:00,34.0,25.6,30.18,North,355,0.0,0.0,71,0.00,,---,0.00,VWS V14.01,2013-01-03 10:37:00,
2013-01-03 05:42:00,34.0,25.9,30.19,North,355,0.0,0.0,72,0.00,,---,0.00,VWS V14.01,2013-01-03 10:42:00,
2013-01-03 05:47:00,34.0,25.9,30.19,North,355,0.0,0.0,72,0.00,,---,0.00,VWS V14.01,2013-01-03 10:47:00,
2013-01-03 05:52:00,34.0,25.9,30.19,North,355,0.0,0.0,72,0.00,,---,0.00,VWS V14.01,2013-01-03 10:52:00,
2013-01-03 05:57:00,34.0,26.3,30.19,North,355,0.0,0.0,73,0.00,,---,0.00,VWS V14.01,2013-01-03 10:57:00,
2013-01-03 06:00:00,33.9,26.5,30.19,North,355,0.0,0.0,74,0.00,,---,0.00,VWS V14.01,2013-01-03 11:00:00,
2013-01-03 06:02:00,33.9,26.2,30.19,North,355,0.0,3.0,73,0.00,,---,0.00,VWS V14.01,2013-01-03 11:02:00,
2013-01-03 06:07:00,33.9,26.8,30.19,North,355,0.0,3.0,75,0.00,,---,0.00,VWS V14.01,2013-01-03 11:07:00,
2013-01-03 06:12:00,33.9,27.5,30.19,North,355,0.0,3.0,77,0.00,,---,0.00,VWS V14.01,2013-01-03 11:12:00,
2013-01-03 06:17:00,33.9,27.5,30.20,North,355,0.0,3.0,77,0.00,,---,0.00,VWS V14.01,2013-01-03 11:17:00,
2013-01-03 06:22:00,33.9,27.8,30.20,North,355,0.0,3.0,78,0.00,,---,0.00,VWS V14.01,2013-01-03 11:22:00,
2013-01-03 06:27:00,33.9,27.8,30.20,North,355,0.0,3.0,78,0.00,,---,0.00,VWS V14.01,2013-01-03 11:27:00,
2013-01-03 06:30:00,33.9,27.8,30.20,North,355,0.0,3.0,78,0.00,,---,0.00,VWS V14.01,2013-01-03 11:30:00,
2013-01-03 06:32:00,33.8,28.0,30.20,North,355,0.0,0.0,79,0.00,,---,0.00,VWS V14.01,2013-01-03 11:32:00,
2013-01-03 06:38:00,33.8,28.0,30.21,North,355,0.0,0.0,79,0.00,,---,0.00,VWS V14.01,2013-01-03 11:38:00,
2013-01-03 06:43:00,33.9,28.1,30.21,North,355,0.0,0.0,79,0.00,,---,0.00,VWS V14.01,2013-01-03 11:43:00,
2013-01-03 06:48:00,33.8,28.3,30.21,North,355,0.0,0.0,80,0.00,,---,0.00,VWS V14.01,2013-01-03 11:48:00,
2013-01-03 06:53:00,33.8,28.3,30.21,North,355,0.0,0.0,80,0.00,,---,0.00,VWS V14.01,2013-01-03 11:53:00,
2013-01-03 06:58:00,33.8,28.3,30.21,North,355,0.0,0.0,80,0.00,,---,0.00,VWS V14.01,2013-01-03 11:58:00,
2013-01-03 07:00:00,33.8,28.3,30.21,North,355,0.0,0.0,80,0.00,,---,0.00,VWS V14.01,2013-01-03 12:00:00,
2013-01-03 07:03:00,33.8,28.3,30.21,North,355,0.0,0.0,80,0.00,,---,0.00,VWS V14.01,2013-01-03 12:03:00,
2013-01-03 07:08:00,33.8,28.3,30.21,North,355,0.0,0.0,80,0.00,,---,0.00,VWS V14.01,2013-01-03 12:08:00,
2013-01-03 07:13:00,33.8,28.6,30.22,North,355,0.0,0.0,81,0.00,,---,0.00,VWS V14.01,2013-01-03 12:13:00,
2013-01-03 07:18:00,33.8,28.6,30.22,North,355,0.0,0.0,81,0.00,,---,0.00,VWS V14.01,2013-01-03 12:18:00,
2013-01-03 07:23:00,33.8,28.9,30.22,North,355,0.0,0.0,82,0.00,,---,0.00,VWS V14.01,2013-01-03 12:23:00,
2013-01-03 07:27:00,33.8,28.9,30.22,North,355,0.0,0.0,82,0.00,,---,0.00,VWS V14.01,2013-01-03 12:27:00,
2013-01-03 07:30:00,33.8,28.9,30.22,North,355,0.0,0.0,82,0.00,,---,0.00,VWS V14.01,2013-01-03 12:30:00,
2013-01-03 07:32:00,33.8,28.9,30.22,North,355,0.0,0.0,82,0.00,,---,0.00,VWS V14.01,2013-01-03 12:32:00,
2013-01-03 07:37:00,33.8,29.2,30.22,North,355,0.0,0.0,83,0.00,,---,0.00,VWS V14.01,2013-01-03 12:37:00,
2013-01-03 07:42:00,33.8,28.9,30.23,North,355,0.0,0.0,82,0.00,,---,0.00,VWS V14.01,2013-01-03 12:42:00,
2013-01-03 07:47:00,33.8,29.2,30.22,North,355,0.0,0.0,83,0.00,,---,0.00,VWS V14.01,2013-01-03 12:47:00,
2013-01-03 07:52:00,33.7,28.8,30.23,North,355,0.0,0.0,82,0.00,,---,0.00,VWS V14.01,2013-01-03 12:52:00,
2013-01-03 07:57:00,33.7,28.8,30.23,North,355,0.0,0.0,82,0.00,,---,0.00,VWS V14.01,2013-01-03 12:57:00,
2013-01-03 08:00:00,33.7,29.1,30.23,North,355,0.0,0.0,83,0.00,,---,0.00,VWS V14.01,2013-01-03 13:00:00,
2013-01-03 08:02:00,33.8,29.2,30.23,North,355,0.0,0.0,83,0.00,,---,0.00,VWS V14.01,2013-01-03 13:02:00,
2013-01-03 08:07:00,33.8,29.2,30.22,North,355,0.0,0.0,83,0.00,,---,0.00,VWS V14.01,2013-01-03 13:07:00,
2013-01-03 08:12:00,33.8,29.2,30.22,North,355,0.0,0.0,83,0.00,,---,0.00,VWS V14.01,2013-01-03 13:12:00,
2013-01-03 08:17:00,33.8,29.2,30.23,North,355,0.0,2.0,83,0.00,,---,0.00,VWS V14.01,2013-01-03 13:17:00,
2013-01-03 08:22:00,33.8,29.5,30.23,North,355,2.0,2.0,84,0.00,,---,0.00,VWS V14.01,2013-01-03 13:22:00,
2013-01-03 08:27:00,33.8,29.2,30.23,ENE,65,3.0,5.0,83,0.00,,---,0.00,VWS V14.01,2013-01-03 13:27:00,
2013-01-03 08:30:00,33.8,29.2,30.23,ENE,65,1.0,5.0,83,0.00,,---,0.00,VWS V14.01,2013-01-03 13:30:00,
2013-01-03 08:32:00,33.7,29.4,30.23,ENE,65,3.0,5.0,84,0.00,,---,0.00,VWS V14.01,2013-01-03 13:32:00,
2013-01-03 08:37:00,33.7,29.4,30.23,ENE,65,1.0,5.0,84,0.00,,---,0.00,VWS V14.01,2013-01-03 13:37:00,
2013-01-03 08:42:00,33.7,29.4,30.23,ENE,65,0.0,5.0,84,0.00,,---,0.00,VWS V14.01,2013-01-03 13:42:00,
2013-01-03 08:47:00,33.7,29.4,30.22,ENE,65,0.0,5.0,84,0.00,,---,0.00,VWS V14.01,2013-01-03 13:47:00,
2013-01-03 08:52:00,33.7,29.4,30.23,ENE,65,0.0,5.0,84,0.00,,---,0.00,VWS V14.01,2013-01-03 13:52:00,
2013-01-03 08:57:00,33.7,29.4,30.23,ENE,65,1.0,5.0,84,0.00,,---,0.00,VWS V14.01,2013-01-03 13:57:00,
2013-01-03 09:00:00,33.7,29.4,30.23,ENE,65,0.0,5.0,84,0.00,,---,0.00,VWS V14.01,2013-01-03 14:00:00,
2013-01-03 09:02:00,33.7,29.4,30.23,ENE,65,0.0,2.0,84,0.00,,---,0.00,VWS V14.01,2013-01-03 14:02:00,
2013-01-03 09:07:00,33.7,29.4,30.23,ENE,65,0.0,2.0,84,0.00,,---,0.00,VWS V14.01,2013-01-03 14:07:00,
2013-01-03 09:12:00,33.7,29.4,30.23,ENE,65,0.0,2.0,84,0.00,,---,0.00,VWS V14.01,2013-01-03 14:12:00,
2013-01-03 09:17:00,33.7,29.1,30.23,East,81,0.0,3.0,83,0.00,,---,0.00,VWS V14.01,2013-01-03 14:17:00,
2013-01-03 09:22:00,33.7,29.1,30.23,East,81,3.0,3.0,83,0.00,,---,0.00,VWS V14.01,2013-01-03 14:22:00,
2013-01-03 09:27:00,33.8,29.2,30.23,East,81,0.0,3.0,83,0.00,,---,0.00,VWS V14.01,2013-01-03 14:27:00,
2013-01-03 09:30:00,33.8,29.5,30.23,East,81,0.0,3.0,84,0.00,,---,0.00,VWS V14.01,2013-01-03 14:30:00,
2013-01-03 09:32:00,33.9,29.3,30.23,East,81,0.0,2.0,83,0.00,,---,0.00,VWS V14.01,2013-01-03 14:32:00,
2013-01-03 09:37:00,33.9,29.3,30.23,East,81,0.0,2.0,83,0.00,,---,0.00,VWS V14.01,2013-01-03 14:37:00,
2013-01-03 09:42:00,34.0,29.4,30.23,East,81,0.0,2.0,83,0.00,,---,0.00,VWS V14.01,2013-01-03 14:42:00,
2013-01-03 09:47:00,34.0,29.4,30.23,East,81,0.0,2.0,83,0.00,,---,0.00,VWS V14.01,2013-01-03 14:47:00,
2013-01-03 09:52:00,34.1,29.5,30.24,East,81,0.0,2.0,83,0.00,,---,0.00,VWS V14.01,2013-01-03 14:52:00,
2013-01-03 09:57:00,34.2,29.9,30.24,East,81,0.0,2.0,84,0.00,,---,0.00,VWS V14.01,2013-01-03 14:57:00,
2013-01-03 10:00:00,34.3,30.0,30.24,East,81,0.0,2.0,84,0.00,,---,0.00,VWS V14.01,2013-01-03 15:00:00,
2013-01-03 10:02:00,34.4,30.1,30.24,East,81,0.0,1.0,84,0.00,,---,0.00,VWS V14.01,2013-01-03 15:02:00,
2013-01-03 10:07:00,34.6,30.0,30.24,East,81,0.0,1.0,83,0.00,,---,0.00,VWS V14.01,2013-01-03 15:07:00,
2013-01-03 10:12:00,34.7,29.8,30.24,East,81,0.0,1.0,82,0.00,,---,0.00,VWS V14.01,2013-01-03 15:12:00,
2013-01-03 10:17:00,34.8,29.9,30.24,East,82,0.0,2.0,82,0.00,,---,0.00,VWS V14.01,2013-01-03 15:17:00,
2013-01-03 10:22:00,34.9,29.7,30.24,East,82,0.0,2.0,81,0.00,,---,0.00,VWS V14.01,2013-01-03 15:22:00,
2013-01-03 10:27:00,34.9,29.7,30.24,East,82,0.0,2.0,81,0.00,,---,0.00,VWS V14.01,2013-01-03 15:27:00,
2013-01-03 10:30:00,35.0,29.8,30.24,East,82,0.0,2.0,81,0.00,,---,0.00,VWS V14.01,2013-01-03 15:30:00,
2013-01-03 10:32:00,35.0,29.8,30.24,East,82,0.0,0.0,81,0.00,,---,0.00,VWS V14.01,2013-01-03 15:32:00,
2013-01-03 10:37:00,35.3,29.8,30.24,East,82,0.0,1.0,80,0.00,,---,0.00,VWS V14.01,2013-01-03 15:37:00,
2013-01-03 10:42:00,35.4,29.9,30.24,East,82,0.0,1.0,80,0.00,,---,0.00,VWS V14.01,2013-01-03 15:42:00,
2013-01-03 10:47:00,35.5,29.3,30.24,East,82,0.0,1.0,78,0.00,,---,0.00,VWS V14.01,2013-01-03 15:47:00,
2013-01-03 10:52:00,35.7,29.5,30.24,East,82,0.0,1.0,78,0.00,,---,0.00,VWS V14.01,2013-01-03 15:52:00,
2013-01-03 10:57:00,35.9,29.7,30.23,East,82,0.0,1.0,78,0.00,,---,0.00,VWS V14.01,2013-01-03 15:57:00,
2013-01-03 11:00:00,36.0,29.5,30.23,East,82,0.0,1.0,77,0.00,,---,0.00,VWS V14.01,2013-01-03 16:00:00,
2013-01-03 11:02:00,36.1,29.6,30.24,East,82,0.0,1.0,77,0.00,,---,0.00,VWS V14.01,2013-01-03 16:02:00,
2013-01-03 11:07:00,36.3,29.8,30.24,East,82,0.0,1.0,77,0.00,,---,0.00,VWS V14.01,2013-01-03 16:07:00,
2013-01-03 11:12:00,36.6,29.8,30.23,NNE,19,2.0,4.0,76,0.00,,---,0.00,VWS V14.01,2013-01-03 16:12:00,
2013-01-03 11:17:00,36.6,29.8,30.23,NNE,22,0.0,4.0,76,0.00,,---,0.00,VWS V14.01,2013-01-03 16:17:00,
2013-01-03 11:22:00,36.6,29.8,30.22,NNE,22,0.0,4.0,76,0.00,,---,0.00,VWS V14.01,2013-01-03 16:22:00,
2013-01-03 11:27:00,36.8,29.6,30.22,NNE,22,0.0,4.0,75,0.00,,---,0.00,VWS V14.01,2013-01-03 16:27:00,
2013-01-03 11:30:00,36.8,29.6,30.22,NNE,22,0.0,4.0,75,0.00,,---,0.00,VWS V14.01,2013-01-03 16:30:00,
2013-01-03 11:32:00,36.8,30.0,30.21,NNE,22,0.0,3.0,76,0.00,,---,0.00,VWS V14.01,2013-01-03 16:32:00,
2013-01-03 11:37:00,36.7,29.5,30.21,SE,139,2.0,5.0,75,0.00,,---,0.00,VWS V14.01,2013-01-03 16:37:00,
2013-01-03 11:42:00,36.6,29.4,30.21,SE,139,0.0,5.0,75,0.00,,---,0.00,VWS V14.01,2013-01-03 16:42:00,
2013-01-03 11:47:00,36.6,29.4,30.21,SE,139,0.0,5.0,75,0.00,,---,0.00,VWS V14.01,2013-01-03 16:47:00,
2013-01-03 11:52:00,36.8,29.6,30.21,SE,139,0.0,5.0,75,0.00,,---,0.00,VWS V14.01,2013-01-03 16:52:00,
2013-01-03 11:57:00,37.0,30.5,30.20,SE,139,0.0,5.0,77,0.00,,---,0.00,VWS V14.01,2013-01-03 16:57:00,
2013-01-03 12:00:00,37.1,30.9,30.20,SE,139,0.0,5.0,78,0.00,,---,0.00,VWS V14.01,2013-01-03 17:00:00,
2013-01-03 12:02:00,37.2,30.4,30.20,South,185,0.0,3.0,76,0.00,,---,0.00,VWS V14.01,2013-01-03 17:02:00,
2013-01-03 12:07:00,37.5,31.0,30.20,NE,55,1.0,3.0,77,0.00,,---,0.00,VWS V14.01,2013-01-03 17:07:00,
2013-01-03 12:12:00,37.7,30.5,30.20,ESE,121,0.0,3.0,75,0.00,,---,0.00,VWS V14.01,2013-01-03 17:12:00,
2013-01-03 12:17:00,37.8,30.9,30.20,ESE,121,0.0,3.0,76,0.00,,---,0.00,VWS V14.01,2013-01-03 17:17:00,
2013-01-03 12:22:00,38.0,30.5,30.19,SSW,194,0.0,5.0,74,0.00,,---,0.00,VWS V14.01,2013-01-03 17:22:00,
2013-01-03 12:27:00,38.3,30.4,30.19,SSW,194,0.0,5.0,73,0.00,,---,0.00,VWS V14.01,2013-01-03 17:27:00,
2013-01-03 12:30:00,38.4,30.5,30.19,SSW,194,0.0,5.0,73,0.00,,---,0.00,VWS V14.01,2013-01-03 17:30:00,
2013-01-03 12:32:00,38.6,30.7,30.19,SSW,194,0.0,0.0,73,0.00,,---,0.00,VWS V14.01,2013-01-03 17:32:00,
2013-01-03 12:37:00,38.9,30.7,30.19,SSW,194,0.0,1.0,72,0.00,,---,0.00,VWS V14.01,2013-01-03 17:37:00,
2013-01-03 12:42:00,39.1,29.5,30.18,SW,232,2.0,4.0,68,0.00,,---,0.00,VWS V14.01,2013-01-03 17:42:00,
2013-01-03 12:47:00,39.3,31.0,30.18,East,83,2.0,5.0,72,0.00,,---,0.00,VWS V14.01,2013-01-03 17:47:00,
2013-01-03 12:52:00,39.2,30.6,30.18,East,83,3.0,5.0,71,0.00,,---,0.00,VWS V14.01,2013-01-03 17:52:00,
2013-01-03 12:57:00,39.2,30.6,30.18,East,94,0.0,5.0,71,0.00,,---,0.00,VWS V14.01,2013-01-03 17:57:00,
2013-01-03 13:00:00,39.2,30.6,30.18,East,94,0.0,5.0,71,0.00,,---,0.00,VWS V14.01,2013-01-03 18:00:00,
2013-01-03 13:02:00,39.3,31.0,30.17,East,96,2.0,2.0,72,0.00,,---,0.00,VWS V14.01,2013-01-03 18:02:00,
2013-01-03 13:07:00,39.7,29.7,30.17,SSE,161,0.0,4.0,67,0.00,,---,0.00,VWS V14.01,2013-01-03 18:07:00,
2013-01-03 13:12:00,40.0,29.2,30.17,West,259,3.0,4.0,65,0.00,,---,0.00,VWS V14.01,2013-01-03 18:12:00,
2013-01-03 13:17:00,40.4,29.6,30.17,West,271,2.0,4.0,65,0.00,,---,0.00,VWS V14.01,2013-01-03 18:17:00,
2013-01-03 13:22:00,40.7,28.7,30.17,WNW,292,2.0,5.0,62,0.00,,---,0.00,VWS V14.01,2013-01-03 18:22:00,
2013-01-03 13:27:00,41.0,29.0,30.17,ENE,60,3.0,5.0,62,0.00,,---,0.00,VWS V14.01,2013-01-03 18:27:00,
2013-01-03 13:30:00,41.1,29.1,30.17,ENE,60,1.0,5.0,62,0.00,,---,0.00,VWS V14.01,2013-01-03 18:30:00,
2013-01-03 13:32:00,41.5,28.7,30.17,SSE,149,0.0,6.0,60,0.00,,---,0.00,VWS V14.01,2013-01-03 18:32:00,
2013-01-03 13:37:00,42.0,27.0,30.16,NNW,327,9.0,9.0,55,0.00,,---,0.00,VWS V14.01,2013-01-03 18:37:00,
2013-01-03 13:42:00,42.1,25.3,30.16,NNW,345,1.0,9.0,51,0.00,,---,0.00,VWS V14.01,2013-01-03 18:42:00,
2013-01-03 13:47:00,42.3,24.5,30.16,WNW,298,4.0,9.0,49,0.00,,---,0.00,VWS V14.01,2013-01-03 18:47:00,
2013-01-03 13:52:00,42.7,25.4,30.17,WSW,244,4.0,9.0,50,0.00,,---,0.00,VWS V14.01,2013-01-03 18:52:00,
2013-01-03 13:57:00,43.1,23.2,30.16,West,279,2.0,9.0,45,0.00,,---,0.00,VWS V14.01,2013-01-03 18:57:00,
2013-01-03 14:00:00,43.1,22.7,30.16,South,173,5.0,9.0,44,0.00,,---,0.00,VWS V14.01,2013-01-03 19:00:00,
2013-01-03 14:02:00,43.0,22.0,30.16,SSE,163,0.0,5.0,43,0.00,,---,0.00,VWS V14.01,2013-01-03 19:02:00,
2013-01-03 14:07:00,43.0,22.6,30.16,WSW,250,3.0,6.0,44,0.00,,---,0.00,VWS V14.01,2013-01-03 19:07:00,
2013-01-03 14:12:00,43.2,21.7,30.16,WSW,257,3.0,7.0,42,0.00,,---,0.00,VWS V14.01,2013-01-03 19:12:00,
2013-01-03 14:17:00,43.4,21.9,30.16,West,280,3.0,7.0,42,0.00,,---,0.00,VWS V14.01,2013-01-03 19:17:00,
2013-01-03 14:30:00,43.4,21.3,30.16,West,275,0.0,7.0,41,0.00,,---,0.00,VWS V14.01,2013-01-03 19:30:00,
2013-01-03 14:55:00,43.3,21.2,30.16,West,275,0.0,3.0,41,0.00,,---,0.00,VWS V14.01,2013-01-03 19:55:00,
2013-01-03 15:00:00,43.3,23.4,30.16,West,275,2.0,3.0,45,0.00,,---,0.00,VWS V14.01,2013-01-03 20:00:00,
2013-01-03 15:04:00,43.3,19.4,30.17,North,355,2.0,9.0,38,0.00,,---,0.00,VWS V14.01,2013-01-03 20:04:00,
2013-01-03 15:09:00,43.3,21.8,30.17,North,355,0.0,9.0,42,0.00,,---,0.00,VWS V14.01,2013-01-03 20:09:00,
2013-01-03 15:14:00,43.3,22.9,30.17,NNW,331,0.0,9.0,44,0.00,,---,0.00,VWS V14.01,2013-01-03 20:14:00,
2013-01-03 15:19:00,43.4,23.5,30.17,NNW,331,0.0,9.0,45,0.00,,---,0.00,VWS V14.01,2013-01-03 20:19:00,
2013-01-03 15:24:00,43.4,21.9,30.17,NNW,331,0.0,9.0,42,0.00,,---,0.00,VWS V14.01,2013-01-03 20:24:00,
2013-01-03 15:29:00,43.4,20.7,30.17,WNW,294,4.0,4.0,40,0.00,,---,0.00,VWS V14.01,2013-01-03 20:29:00,
2013-01-03 15:30:00,43.3,20.6,30.17,WNW,294,3.0,9.0,40,0.00,,---,0.00,VWS V14.01,2013-01-03 20:30:00,
2013-01-03 15:34:00,43.4,19.5,30.17,NNW,338,2.0,8.0,38,0.00,,---,0.00,VWS V14.01,2013-01-03 20:34:00,
2013-01-03 15:39:00,43.3,20.0,30.18,NNW,338,1.0,8.0,39,0.00,,---,0.00,VWS V14.01,2013-01-03 20:39:00,
2013-01-03 15:44:00,43.3,20.0,30.18,WNW,302,3.0,8.0,39,0.00,,---,0.00,VWS V14.01,2013-01-03 20:44:00,
2013-01-03 15:49:00,43.1,19.2,30.18,WNW,295,3.0,8.0,38,0.00,,---,0.00,VWS V14.01,2013-01-03 20:49:00,
2013-01-03 15:54:00,42.9,19.7,30.18,NW,322,4.0,8.0,39,0.00,,---,0.00,VWS V14.01,2013-01-03 20:54:00,
2013-01-03 15:59:00,42.7,19.5,30.18,NW,315,1.0,2.0,39,0.00,,---,0.00,VWS V14.01,2013-01-03 20:59:00,
2013-01-03 16:00:00,42.8,19.6,30.18,NW,314,2.0,8.0,39,0.00,,---,0.00,VWS V14.01,2013-01-03 21:00:00,
2013-01-03 16:04:00,42.5,19.3,30.19,NW,320,1.0,6.0,39,0.00,,---,0.00,VWS V14.01,2013-01-03 21:04:00,
2013-01-03 16:09:00,42.4,20.4,30.19,NW,320,3.0,6.0,41,0.00,,---,0.00,VWS V14.01,2013-01-03 21:09:00,
2013-01-03 16:14:00,42.2,19.6,30.19,NW,316,4.0,7.0,40,0.00,,---,0.00,VWS V14.01,2013-01-03 21:14:00,
2013-01-03 16:19:00,42.1,20.1,30.19,NW,321,3.0,7.0,41,0.00,,---,0.00,VWS V14.01,2013-01-03 21:19:00,
2013-01-03 16:24:00,42.0,20.6,30.19,NW,321,2.0,7.0,42,0.00,,---,0.00,VWS V14.01,2013-01-03 21:24:00,
2013-01-03 16:29:00,41.8,19.3,30.19,NW,321,1.0,4.0,40,0.00,,---,0.00,VWS V14.01,2013-01-03 21:29:00,
2013-01-03 16:30:00,41.8,19.3,30.19,NW,321,4.0,7.0,40,0.00,,---,0.00,VWS V14.01,2013-01-03 21:30:00,
2013-01-03 16:34:00,41.8,19.8,30.19,NW,320,2.0,5.0,41,0.00,,---,0.00,VWS V14.01,2013-01-03 21:34:00,
2013-01-03 16:39:00,41.6,19.7,30.20,NW,320,0.0,5.0,41,0.00,,---,0.00,VWS V14.01,2013-01-03 21:39:00,
2013-01-03 16:44:00,41.5,19.0,30.20,NW,320,0.0,5.0,40,0.00,,---,0.00,VWS V14.01,2013-01-03 21:44:00,
2013-01-03 16:49:00,41.5,19.6,30.20,NW,320,2.0,5.0,41,0.00,,---,0.00,VWS V14.01,2013-01-03 21:49:00,
2013-01-03 16:54:00,41.4,20.0,30.20,NW,320,0.0,5.0,42,0.00,,---,0.00,VWS V14.01,2013-01-03 21:54:00,
2013-01-03 16:59:00,41.3,20.0,30.20,NW,320,0.0,0.0,42,0.00,,---,0.00,VWS V14.01,2013-01-03 21:59:00,
2013-01-03 17:00:00,41.3,20.0,30.20,NW,320,0.0,5.0,42,0.00,,---,0.00,VWS V14.01,2013-01-03 22:00:00,
2013-01-03 17:04:00,41.1,19.8,30.21,NW,320,0.0,4.0,42,0.00,,---,0.00,VWS V14.01,2013-01-03 22:04:00,
2013-01-03 17:09:00,40.9,19.6,30.21,NW,320,0.0,4.0,42,0.00,,---,0.00,VWS V14.01,2013-01-03 22:09:00,
2013-01-03 17:14:00,40.6,19.9,30.21,NW,320,0.0,4.0,43,0.00,,---,0.00,VWS V14.01,2013-01-03 22:14:00,
2013-01-03 17:19:00,40.4,19.7,30.21,NW,320,0.0,4.0,43,0.00,,---,0.00,VWS V14.01,2013-01-03 22:19:00,
2013-01-03 17:24:00,40.0,19.3,30.21,NW,320,0.0,4.0,43,0.00,,---,0.00,VWS V14.01,2013-01-03 22:24:00,
2013-01-03 17:29:00,39.7,19.6,30.22,NW,320,0.0,1.0,44,0.00,,---,0.00,VWS V14.01,2013-01-03 22:29:00,
2013-01-03 17:30:00,39.7,19.6,30.22,NW,320,1.0,4.0,44,0.00,,---,0.00,VWS V14.01,2013-01-03 22:30:00,
2013-01-03 17:34:00,39.4,19.3,30.22,NW,320,0.0,3.0,44,0.00,,---,0.00,VWS V14.01,2013-01-03 22:34:00,
2013-01-03 17:39:00,39.2,19.7,30.22,NW,320,2.0,3.0,45,0.00,,---,0.00,VWS V14.01,2013-01-03 22:39:00,
2013-01-03 17:44:00,38.9,19.4,30.22,NW,320,0.0,3.0,45,0.00,,---,0.00,VWS V14.01,2013-01-03 22:44:00,
2013-01-03 17:49:00,38.6,19.6,30.22,NW,320,0.0,3.0,46,0.00,,---,0.00,VWS V14.01,2013-01-03 22:49:00,
2013-01-03 17:54:00,38.4,19.9,30.22,NW,320,1.0,3.0,47,0.00,,---,0.00,VWS V14.01,2013-01-03 22:54:00,
2013-01-03 17:59:00,38.2,19.8,30.22,NW,320,1.0,1.0,47,0.00,,---,0.00,VWS V14.01,2013-01-03 22:59:00,
2013-01-03 18:00:00,38.2,19.8,30.22,NW,320,0.0,3.0,47,0.00,,---,0.00,VWS V14.01,2013-01-03 23:00:00,
2013-01-03 18:04:00,38.0,19.6,30.22,NW,320,0.0,1.0,47,0.00,,---,0.00,VWS V14.01,2013-01-03 23:04:00,
2013-01-03 18:09:00,37.7,20.3,30.23,NW,320,0.0,2.0,49,0.00,,---,0.00,VWS V14.01,2013-01-03 23:09:00,
2013-01-03 18:14:00,37.3,19.9,30.23,NW,320,1.0,2.0,49,0.00,,---,0.00,VWS V14.01,2013-01-03 23:14:00,
2013-01-03 18:19:00,37.1,20.2,30.23,NW,320,2.0,3.0,50,0.00,,---,0.00,VWS V14.01,2013-01-03 23:19:00,
2013-01-03 18:24:00,36.9,20.0,30.23,NW,320,2.0,4.0,50,0.00,,---,0.00,VWS V14.01,2013-01-03 23:24:00,
2013-01-03 18:29:00,36.7,20.3,30.23,NW,320,2.0,3.0,51,0.00,,---,0.00,VWS V14.01,2013-01-03 23:29:00,
2013-01-03 18:30:00,36.7,20.3,30.23,NW,320,3.0,4.0,51,0.00,,---,0.00,VWS V14.01,2013-01-03 23:30:00,
2013-01-03 18:34:00,36.5,20.1,30.23,NW,320,3.0,3.0,51,0.00,,---,0.00,VWS V14.01,2013-01-03 23:34:00,
2013-01-03 18:39:00,36.4,20.5,30.23,NW,320,0.0,3.0,52,0.00,,---,0.00,VWS V14.01,2013-01-03 23:39:00,
2013-01-03 18:44:00,36.0,20.5,30.23,NW,320,0.0,3.0,53,0.00,,---,0.00,VWS V14.01,2013-01-03 23:44:00,
2013-01-03 18:49:00,35.6,20.2,30.23,NW,320,0.0,3.0,53,0.00,,---,0.00,VWS V14.01,2013-01-03 23:49:00,
2013-01-03 18:54:00,35.3,20.3,30.23,NW,320,0.0,3.0,54,0.00,,---,0.00,VWS V14.01,2013-01-03 23:54:00,
2013-01-03 18:59:00,34.9,20.4,30.24,NW,320,2.0,2.0,55,0.00,,---,0.00,VWS V14.01,2013-01-03 23:59:00,
2013-01-03 19:00:00,35.0,20.5,30.23,NW,320,1.0,3.0,55,0.00,,---,0.00,VWS V14.01,2013-01-04 00:00:00,
2013-01-03 19:04:00,34.7,20.6,30.23,NW,320,0.0,3.0,56,0.00,,---,0.00,VWS V14.01,2013-01-04 00:04:00,
2013-01-03 19:09:00,34.3,22.3,30.23,NW,320,1.0,3.0,61,0.00,,---,0.00,VWS V14.01,2013-01-04 00:09:00,
2013-01-03 19:14:00,33.9,20.7,30.24,NW,320,0.0,3.0,58,0.00,,---,0.00,VWS V14.01,2013-01-04 00:14:00,
2013-01-03 19:19:00,33.7,20.9,30.24,NW,320,0.0,3.0,59,0.00,,---,0.00,VWS V14.01,2013-01-04 00:19:00,
2013-01-03 19:24:00,33.5,20.7,30.23,NW,320,0.0,3.0,59,0.00,,---,0.00,VWS V14.01,2013-01-04 00:24:00,
2013-01-03 19:29:00,33.2,20.8,30.24,NW,320,0.0,0.0,60,0.00,,---,0.00,VWS V14.01,2013-01-04 00:29:00,
2013-01-03 19:30:00,33.2,20.8,30.24,NW,320,0.0,3.0,60,0.00,,---,0.00,VWS V14.01,2013-01-04 00:30:00,
2013-01-03 19:34:00,32.9,20.9,30.24,NW,320,0.0,2.0,61,0.00,,---,0.00,VWS V14.01,2013-01-04 00:34:00,
2013-01-03 19:39:00,32.6,21.4,30.24,NW,320,3.0,3.0,63,0.00,,---,0.00,VWS V14.01,2013-01-04 00:39:00,
2013-01-03 19:44:00,32.4,21.2,30.24,NW,320,1.0,3.0,63,0.00,,---,0.00,VWS V14.01,2013-01-04 00:44:00,
2013-01-03 19:49:00,32.3,21.5,30.24,NW,320,1.0,3.0,64,0.00,,---,0.00,VWS V14.01,2013-01-04 00:49:00,
2013-01-03 19:54:00,32.0,21.2,30.24,NW,320,2.0,3.0,64,0.00,,---,0.00,VWS V14.01,2013-01-04 00:54:00,
2013-01-03 19:59:00,31.8,21.4,30.24,NW,320,1.0,2.0,65,0.00,,---,0.00,VWS V14.01,2013-01-04 00:59:00,
2013-01-03 20:00:00,31.9,21.5,30.24,NW,320,2.0,4.0,65,0.00,,---,0.00,VWS V14.01,2013-01-04 01:00:00,
2013-01-03 20:04:00,31.7,21.3,30.25,NW,320,0.0,2.0,65,0.00,,---,0.00,VWS V14.01,2013-01-04 01:04:00,
2013-01-03 20:09:00,31.7,21.3,30.25,NW,320,1.0,4.0,65,0.00,,---,0.00,VWS V14.01,2013-01-04 01:09:00,
2013-01-03 20:14:00,31.8,21.8,30.25,NW,320,0.0,4.0,66,0.00,,---,0.00,VWS V14.01,2013-01-04 01:14:00,
2013-01-03 20:19:00,31.6,21.2,30.25,NW,320,0.0,4.0,65,0.00,,---,0.00,VWS V14.01,2013-01-04 01:19:00,
2013-01-03 20:24:00,31.6,21.9,30.25,NW,320,0.0,4.0,67,0.00,,---,0.00,VWS V14.01,2013-01-04 01:24:00,
2013-01-03 20:29:00,31.4,21.7,30.24,NW,320,0.0,0.0,67,0.00,,---,0.00,VWS V14.01,2013-01-04 01:29:00,
2013-01-03 20:30:00,31.4,21.7,30.24,NW,320,0.0,4.0,67,0.00,,---,0.00,VWS V14.01,2013-01-04 01:30:00,
2013-01-03 20:34:00,31.1,21.1,30.25,NW,320,0.0,0.0,66,0.00,,---,0.00,VWS V14.01,2013-01-04 01:34:00,
2013-01-03 20:39:00,30.9,21.2,30.25,NW,320,0.0,2.0,67,0.00,,---,0.00,VWS V14.01,2013-01-04 01:39:00,
2013-01-03 20:44:00,30.8,21.5,30.25,NW,320,0.0,2.0,68,0.00,,---,0.00,VWS V14.01,2013-01-04 01:44:00,
2013-01-03 20:49:00,30.6,21.3,30.25,NW,320,0.0,2.0,68,0.00,,---,0.00,VWS V14.01,2013-01-04 01:49:00,
2013-01-03 20:54:00,30.5,21.2,30.25,NW,320,0.0,2.0,68,0.00,,---,0.00,VWS V14.01,2013-01-04 01:54:00,
2013-01-03 20:59:00,30.6,21.3,30.25,NW,320,0.0,0.0,68,0.00,,---,0.00,VWS V14.01,2013-01-04 01:59:00,
2013-01-03 21:00:00,30.6,21.3,30.25,NW,320,0.0,2.0,68,0.00,,---,0.00,VWS V14.01,2013-01-04 02:00:00,
2013-01-03 21:04:00,30.5,21.2,30.25,NW,320,0.0,0.0,68,0.00,,---,0.00,VWS V14.01,2013-01-04 02:04:00,
2013-01-03 21:09:00,30.6,21.6,30.25,NW,320,0.0,0.0,69,0.00,,---,0.00,VWS V14.01,2013-01-04 02:09:00,
2013-01-03 21:14:00,30.5,21.9,30.25,NW,320,0.0,0.0,70,0.00,,---,0.00,VWS V14.01,2013-01-04 02:14:00,
2013-01-03 21:19:00,30.2,21.6,30.25,NW,320,1.0,2.0,70,0.00,,---,0.00,VWS V14.01,2013-01-04 02:19:00,
2013-01-03 21:24:00,29.8,21.9,30.25,NW,320,0.0,2.0,72,0.00,,---,0.00,VWS V14.01,2013-01-04 02:24:00,
2013-01-03 21:29:00,29.5,21.3,30.25,NW,320,0.0,0.0,71,0.00,,---,0.00,VWS V14.01,2013-01-04 02:29:00,
2013-01-03 21:30:00,29.5,21.3,30.25,NW,320,0.0,2.0,71,0.00,,---,0.00,VWS V14.01,2013-01-04 02:30:00,
2013-01-03 21:34:00,29.3,21.1,30.25,NW,320,0.0,0.0,71,0.00,,---,0.00,VWS V14.01,2013-01-04 02:34:00,
2013-01-03 21:39:00,29.3,21.4,30.25,NW,320,2.0,3.0,72,0.00,,---,0.00,VWS V14.01,2013-01-04 02:39:00,
2013-01-03 21:44:00,29.5,20.9,30.25,NW,320,0.0,3.0,70,0.00,,---,0.00,VWS V14.01,2013-01-04 02:44:00,
2013-01-03 21:49:00,29.4,21.2,30.25,NW,320,0.0,3.0,71,0.00,,---,0.00,VWS V14.01,2013-01-04 02:49:00,
2013-01-03 21:54:00,29.3,21.4,30.25,NW,320,0.0,3.0,72,0.00,,---,0.00,VWS V14.01,2013-01-04 02:54:00,
2013-01-03 21:59:00,29.3,20.7,30.25,NW,320,0.0,0.0,70,0.00,,---,0.00,VWS V14.01,2013-01-04 02:59:00,
2013-01-03 22:00:00,29.3,20.8,30.25,NW,320,0.0,3.0,70,0.00,,---,0.00,VWS V14.01,2013-01-04 03:00:00,
2013-01-03 22:04:00,29.4,20.8,30.25,NW,320,1.0,1.0,70,0.00,,---,0.00,VWS V14.01,2013-01-04 03:04:00,
2013-01-03 22:09:00,29.3,20.7,30.25,NW,320,0.0,2.0,70,0.00,,---,0.00,VWS V14.01,2013-01-04 03:09:00,
2013-01-03 22:14:00,29.2,21.3,30.25,NW,320,0.0,2.0,72,0.00,,---,0.00,VWS V14.01,2013-01-04 03:14:00,
2013-01-03 22:19:00,29.2,20.6,30.25,NW,320,0.0,2.0,70,0.00,,---,0.00,VWS V14.01,2013-01-04 03:19:00,
2013-01-03 22:24:00,29.6,20.7,30.25,NW,320,1.0,3.0,69,0.00,,---,0.00,VWS V14.01,2013-01-04 03:24:00,
2013-01-03 22:29:00,29.9,21.0,30.25,NW,320,0.0,0.0,69,0.00,,---,0.00,VWS V14.01,2013-01-04 03:29:00,
2013-01-03 22:30:00,29.9,21.0,30.25,NW,320,0.0,3.0,69,0.00,,---,0.00,VWS V14.01,2013-01-04 03:30:00,
2013-01-03 22:34:00,29.8,21.9,30.25,NW,320,0.0,0.0,72,0.00,,---,0.00,VWS V14.01,2013-01-04 03:34:00,
2013-01-03 22:39:00,29.5,21.6,30.25,NW,320,0.0,0.0,72,0.00,,---,0.00,VWS V14.01,2013-01-04 03:39:00,
2013-01-03 22:44:00,29.3,21.1,30.25,NW,320,0.0,0.0,71,0.00,,---,0.00,VWS V14.01,2013-01-04 03:44:00,
2013-01-03 22:49:00,29.3,21.1,30.25,NW,320,0.0,0.0,71,0.00,,---,0.00,VWS V14.01,2013-01-04 03:49:00,
2013-01-03 22:54:00,29.3,21.1,30.25,NW,320,0.0,0.0,71,0.00,,---,0.00,VWS V14.01,2013-01-04 03:54:00,
2013-01-03 22:59:00,29.3,20.7,30.25,NW,320,0.0,0.0,70,0.00,,---,0.00,VWS V14.01,2013-01-04 03:59:00,
2013-01-03 23:00:00,29.3,20.8,30.25,NW,320,0.0,0.0,70,0.00,,---,0.00,VWS V14.01,2013-01-04 04:00:00,
2013-01-03 23:04:00,29.2,20.6,30.25,NW,320,0.0,0.0,70,0.00,,---,0.00,VWS V14.01,2013-01-04 04:04:00,
2013-01-03 23:09:00,29.1,20.9,30.25,NW,320,0.0,0.0,71,0.00,,---,0.00,VWS V14.01,2013-01-04 04:09:00,
2013-01-03 23:14:00,28.8,20.9,30.25,NW,320,0.0,0.0,72,0.00,,---,0.00,VWS V14.01,2013-01-04 04:14:00,
2013-01-03 23:19:00,28.7,20.5,30.25,NW,320,0.0,0.0,71,0.00,,---,0.00,VWS V14.01,2013-01-04 04:19:00,
2013-01-03 23:24:00,28.5,21.3,30.25,NW,320,0.0,0.0,74,0.00,,---,0.00,VWS V14.01,2013-01-04 04:24:00,
2013-01-03 23:29:00,28.1,20.9,30.25,NW,320,0.0,0.0,74,0.00,,---,0.00,VWS V14.01,2013-01-04 04:29:00,
2013-01-03 23:30:00,28.1,20.9,30.25,NW,320,0.0,0.0,74,0.00,,---,0.00,VWS V14.01,2013-01-04 04:30:00,
2013-01-03 23:34:00,27.9,20.7,30.25,NW,320,0.0,0.0,74,0.00,,---,0.00,VWS V14.01,2013-01-04 04:34:00,
2013-01-03 23:39:00,27.9,21.0,30.25,NW,320,0.0,3.0,75,0.00,,---,0.00,VWS V14.01,2013-01-04 04:39:00,
2013-01-03 23:44:00,27.7,20.8,30.25,NW,320,0.0,3.0,75,0.00,,---,0.00,VWS V14.01,2013-01-04 04:44:00,
2013-01-03 23:49:00,27.5,20.6,30.25,NW,320,0.0,3.0,75,0.00,,---,0.00,VWS V14.01,2013-01-04 04:49:00,
2013-01-03 23:54:00,27.4,20.8,30.25,NW,320,0.0,3.0,76,0.00,,---,0.00,VWS V14.01,2013-01-04 04:54:00,
2013-01-03 23:59:00,27.3,20.8,30.25,NW,320,0.0,3.0,76,0.00,,---,0.00,VWS V14.01,2013-01-04 04:59:00,